This is the latest recevied weather packets stored in our database for station/object WA6ODQ-13. If no packets are shown the sender has not sent any weather packets the latest 10 day(s).
| Time | Temp. | Humidity | Pressure | Rain* | Wind** | Luminosity | Snow |
|---|---|---|---|---|---|---|---|
| 1788627803 | 19.44° C | 66% | 1013.1 hPa | 0 mm | - | 407 W/m² | - |
| 1788627488 | 19.44° C | 66% | 1012.9 hPa | 0 mm | - | 394 W/m² | - |
| 1788627184 | 19.44° C | 67% | 1012.9 hPa | 0 mm | - | 381 W/m² | - |
| 1788626878 | 18.89° C | 69% | 1013.1 hPa | 0 mm | - | 368 W/m² | - |
| 1788626573 | 18.89° C | 69% | 1013.1 hPa | 0 mm | - | 355 W/m² | - |
| 1788626268 | 18.33° C | 71% | 1012.9 hPa | 0 mm | - | 343 W/m² | - |
| 1788625973 | 17.78° C | 70% | 1013.1 hPa | 0 mm | - | 329 W/m² | - |
| 1788625660 | 17.78° C | 71% | 1012.9 hPa | 0 mm | - | 312 W/m² | - |
| 1788625360 | 18.33° C | 71% | 1012.8 hPa | 0 mm | - | 299 W/m² | - |
| 1788625054 | 17.22° C | 75% | 1012.8 hPa | 0 mm | - | 282 W/m² | - |
| 1788624753 | 16.11° C | 78% | 1012.9 hPa | 0 mm | - | 254 W/m² | - |
| 1788624452 | 16.11° C | 79% | 1013 hPa | 0 mm | - | 42 W/m² | - |
| 1788624152 | 15.56° C | 79% | 1013 hPa | 0 mm | - | 37 W/m² | - |
| 1788623846 | 15° C | 81% | 1012.7 hPa | 0 mm | - | 36 W/m² | - |
| 1788623546 | 15° C | 82% | 1012.8 hPa | 0 mm | - | 34 W/m² | - |
| 1788623240 | 14.44° C | 83% | 1013 hPa | 0 mm | - | 32 W/m² | - |
| 1788622935 | 14.44° C | 84% | 1013.1 hPa | 0 mm | - | 30 W/m² | - |
| 1788622631 | 14.44° C | 84% | 1012.9 hPa | 0 mm | - | 29 W/m² | - |
| 1788622327 | 13.89° C | 85% | 1013.1 hPa | 0 mm | - | 28 W/m² | - |
| 1788622021 | 13.89° C | 86% | 1013.1 hPa | 0 mm | - | 27 W/m² | - |
| 1788621716 | 13.89° C | 86% | 1013.1 hPa | 0 mm | - | 27 W/m² | - |
| 1788621416 | 13.33° C | 86% | 1013.2 hPa | 0 mm | - | 26 W/m² | - |
| 1788621112 | 13.33° C | 88% | 1012.9 hPa | 0 mm | - | 25 W/m² | - |
| 1788620812 | 13.33° C | 89% | 1013 hPa | 0 mm | - | 25 W/m² | - |
| 1788620510 | 12.78° C | 91% | 1012.9 hPa | 0 mm | - | 24 W/m² | - |
* Rain latest hour (hover to see other rain measurements)
** Current wind speed in m/s (hover to see current wind gust speed)